Regional Weather Roundup
Issued by NWS

Home | Current Version | Previous Version | Text Only | Print | Product List | Glossary Off
Versions: 1 2 3 4 5 6 7 8 9 10 11 12 13 14 15 16 17 18 19 20 21 22 23 24 25 26 27 28 29 30 31 32 33 34 35 36 37 38 39 40 41 42 43 44 45 46 47 48 49 50

275
ASUS43 KIND 240559
RWRIN

WEATHER ROUNDUP FOR INDIANA
NATIONAL WEATHER SERVICE INDIANAPOLIS IN
200 AM EDT SUN JUL 24 2016

NOTE: "FAIR" INDICATES FEW OR NO CLOUDS BELOW 12,000 FEET WITH NO
SIGNIFICANT WEATHER AND/OR OBSTRUCTIONS TO VISIBILITY.

* - STATION DOES NOT REPORT WEATHER SUCH AS PRECIPITATION OR FOG.

+ - STATION NOT QUALITY CONTROLLED BY THE NATIONAL WEATHER SERVICE.
    USE DATA WITH CAUTION...ESPECIALLY DEWPOINT AND RELATIVE
    HUMIDITY OBSERVATIONS.

INZ001>003-010>013-019-020-240700-
NORTHWEST INDIANA

CITY           SKY/WX    TMP DP  RH WIND       PRES   REMARKS
KNOX *+        CLOUDY    70  68  94 W16G28    30.05R
MONTICELLO +   CLOUDY    77  73  87 N24G32    30.03R
6HR MIN TEMP:  76; 6HR MAX TEMP:  85;

VALPARAISO     LGT RAIN  71  69  93 W8        30.04S

$$

LMZ046-743>745-240700-
SOUTHERN LAKE MICHIGAN

STATION/POSITION TIME  TEMP    WIND        PRES    WAVE
                       AIR SEA DIR/SP/G            HT
                 (UTC) (F)     (DEG/KT/KT) (MB)    (FT)
BURNS HARBOR     0502   71     210/ 13     1016.9R
MICHIGAN CITY    0500   71                   N/A
5NW MICH CITY    0510   71 72  260/ 10/ 16   N/A     2

$$

INZ004-005-014>016-021>024-240700-
NORTH CENTRAL INDIANA

CITY           SKY/WX    TMP DP  RH WIND       PRES   REMARKS
GOSHEN         CLOUDY    78  72  81 SW7       29.98
6HR MIN TEMP:  76; 6HR MAX TEMP:  86; 6HR PCP:  0.03;

SOUTH BEND     RAIN      72  71  97 W15       30.00S FOG
6HR MIN TEMP:  72; 6HR MAX TEMP:  77; 6HR PCP:  0.52;


$$

INZ006>009-017-018-025>027-240700-
NORTHEAST INDIANA

CITY           SKY/WX    TMP DP  RH WIND       PRES   REMARKS
ANGOLA *+        N/A     75  70  83 CALM      29.98R
FORT WAYNE     CLOUDY    77  74  90 SW6       29.98R
6HR MIN TEMP:  77; 6HR MAX TEMP:  87;


$$

INZ028-029-035-036-043>045-051>053-240700-
WEST CENTRAL INDIANA

CITY           SKY/WX    TMP DP  RH WIND       PRES   REMARKS
CRAWFORDSVL +  PTCLDY    72  72 100 CALM      30.00S
6HR MIN TEMP:  72; 6HR MAX TEMP:  83;

LAFAYETTE      CLOUDY    77  76  96 CALM      29.99R
6HR MIN TEMP:  76; 6HR MAX TEMP:  86;

TERRE HAUTE    CLOUDY    77  74  90 CALM      29.99R FOG
6HR MIN TEMP:  76; 6HR MAX TEMP:  87;


$$

INZ030>032-037>040-046>048-054>057-064-065-240700-
CENTRAL INDIANA

CITY           SKY/WX    TMP DP  RH WIND       PRES   REMARKS
INDIANAPOLIS   CLOUDY    78  72  81 S5        30.00R
6HR MIN TEMP:  77; 6HR MAX TEMP:  87;

-EAGLE CREEK   CLOUDY    80  73  79 CALM      29.99R
6HR MIN TEMP:  79; 6HR MAX TEMP:  88;

KOKOMO *+      PTCLDY    75  70  83 S5        29.99F
6HR MIN TEMP:  75; 6HR MAX TEMP:  86;

SHELBYVILLE    CLOUDY    75  72  90 CALM      29.99S
6HR MIN TEMP:  75; 6HR MAX TEMP:  88;


$$

INZ033-034-041-042-049-050-058-059-240700-
EAST CENTRAL INDIANA

CITY           SKY/WX    TMP DP  RH WIND       PRES   REMARKS
MUNCIE         PTCLDY    81  73  76 SW5       30.00R
6HR MIN TEMP:  78; 6HR MAX TEMP:  89;


$$

INZ060-061-067>069-081>083-085>088-240700-
SOUTHWEST INDIANA

CITY           SKY/WX    TMP DP  RH WIND       PRES   REMARKS
EVANSVILLE     CLEAR     78  76  93 CALM      29.96S FOG
6HR MIN TEMP:  78; 6HR MAX TEMP:  89;

HUNTINGBURG *+ CLEAR     77  73  88 NE3       29.98R
6HR MIN TEMP:  77; 6HR MAX TEMP:  90;


$$

INZ062-063-066-070>080-084-089>092-240700-
SOUTH CENTRAL AND SOUTHEAST INDIANA

CITY           SKY/WX    TMP DP  RH WIND       PRES   REMARKS
BLOOMINGTON    CLEAR     75  73  93 CALM      30.01R FOG
6HR MIN TEMP:  74; 6HR MAX TEMP:  87;

MADISON *+     CLEAR     75  73  94 CALM      30.02S
SEYMOUR +      CLEAR     77  77 100 CALM      29.99R

$$





USA.gov is the U.S. government's official web portal to all federal, state and local government web resources and services.